• Join FlightAware (Why Join?)
  • Login
  • US Flag 
09:53PM EDT


 

Airport Tracker/Info


-or-


 

Live Flight TrackerFlight Track Log ✈ SKW7367 ✈ 19-Sep-2013 ✈ KDTW - KAPN

Flight Track Log - Related Links

Times and Time Zones

All times are in EDT time to prevent confusion due to time zone crossing. See the SKW7367 flight status page for this flight to view local times or setup timezone preferences in your user account.

Time Position Orientation Groundspeed Altitude Reporting Facility
EDT Latitude Longitude Course Direction KTS MPH feet Rate Location/Type
04:30PM 42.2106 -83.3650 313° West 145 167 1,200  Level Cleveland Center
04:31PM 42.2056 -83.3728 229° Southwest 145 167 1,800 2,220 Climbing Cleveland Center
04:32PM 42.1728 -83.4158 224° Southwest 210 242 4,000 1,980 Climbing Cleveland Center
04:32PM 42.1714 -83.4144 143° Southeast 165 190 4,000 2,700 Level Cleveland Center
04:33PM 42.1314 -83.4889 234° Southwest 255 293 6,800 2,580 Climbing Cleveland Center
04:33PM 42.1297 -83.4831 111° Southeast 241 277 6,700 2,460 Descending Cleveland Center
04:34PM 42.6321 -83.3825 340° North  Level Estimated
04:34PM 42.1461 -83.5806 283° West 277 319 9,600  Level Cleveland Center
04:35PM 42.7370 -83.3898 North  Level Estimated
04:35PM 42.2175 -83.6297 333° Northwest 317 365 11,400  Level Cleveland Center
04:36PM 42.8419 -83.3972 313° West  Level Estimated
04:36PM 42.3122 -83.5981 14° North 345 397 13,900  Level Cleveland Center
04:37PM 42.4194 -83.5550 17° North 354 407 15,000 480 Climbing Cleveland Center
04:38PM 42.5056 -83.5231 15° North 359 413 15,000  Level Cleveland Center
04:39PM 42.5981 -83.4875 16° North 347 399 15,000  Level Cleveland Center
04:41PM 42.8053 -83.4061 16° North 352 405 15,000  Level Cleveland Center
04:42PM 42.9011 -83.3689 16° North 357 411 15,000 -60 Level Cleveland Center
04:43PM 43.0014 -83.3681 360° North 360 414 14,900 -60 Descending Cleveland Center
04:44PM 43.0961 -83.3972 347° North 348 400 14,900  Level Cleveland Center
04:45PM 43.1814 -83.4942 320° Northwest 349 402 14,900  Level Cleveland Center
04:46PM 43.2806 -83.4958 359° North 354 407 14,900  Level Cleveland Center
04:47PM 43.3803 -83.5006 358° North 357 411 14,900  Level Cleveland Center
04:48PM 43.4806 -83.5028 359° North 360 414 15,000  Climbing Cleveland Center
04:49PM 43.5792 -83.5067 358° North 356 410 15,000  Level Cleveland Center
04:50PM 43.6433 -83.5100 358° North 358 412 15,000  Level Minneapolis Center
04:51PM 43.7431 -83.5136 359° North 359 413 15,000  Level Minneapolis Center
04:52PM 43.8436 -83.5172 359° North 361 415 15,000  Level Minneapolis Center
04:53PM 43.9606 -83.5203 359° North 363 418 15,000  Level Minneapolis Center
04:54PM 44.0606 -83.5233 359° North 364 419 15,000  Level Minneapolis Center
04:55PM 44.1669 -83.5275 358° North 358 412 15,000 -360 Level Minneapolis Center
04:56PM 44.2672 -83.5308 359° North 365 420 14,300 -1,200 Descending Minneapolis Center
04:57PM 44.3725 -83.5350 358° North 356 410 12,600 -1,500 Descending Minneapolis Center
04:58PM 44.4581 -83.5356 360° North 317 365 11,300 -1,200 Descending Minneapolis Center
04:59PM 44.5478 -83.5406 358° North 304 350 10,200 -1,200 Descending Minneapolis Center
05:00PM 44.6361 -83.5419 359° North 297 342 8,900 -1,140 Descending Minneapolis Center
05:01PM 44.7150 -83.5431 359° North 291 335 7,900 -1,140 Descending Minneapolis Center
05:02PM 44.8003 -83.5453 359° North 287 330 6,600 -1,260 Descending Minneapolis Center
05:03PM 44.8783 -83.5336 North 289 333 5,400 -1,260 Descending Minneapolis Center
05:04PM 44.9622 -83.5236 North 281 323 4,000 -1,020 Descending Minneapolis Center
05:05PM 45.0394 -83.5236 360° North 282 325 3,300 -600 Descending Minneapolis Center
05:06PM 45.1019 -83.5181 North 218 251 2,800 -480 Descending Minneapolis Center
05:07PM 45.1508 -83.5242 355° North 180 207 2,300 -600 Descending Minneapolis Center
05:08PM 45.1361 -83.5628 242° Southwest 142 163 1,600 -720 Descending Minneapolis Center
05:09PM 45.0986 -83.5611 178° South 127 146 900 -720 Descending Minneapolis Center